sat.trackr.live / text

‹ back to catalog

STARLINK-11521 [DTC]

NORAD 62597 · 2025-008L

PAYLOAD ACTIVE UNKNOWN

§ Identity

Operator
Country
US
Launch date
2025-01-13
Launch site
AFETR
Launch vehicle
Mass (kg)
RCS (m²)

Purposes: comms

External: N2YO · Heavens-Above · Gunter

§ Orbital elements

Epoch: 2026-05-25T00:54:09.238752Z

Period
91.67 min
Inclination
42.9991°
Eccentricity
0.0002130
Mean motion
15.70864863 rev/d
Perigee alt
355.0 km
Apogee alt
357.9 km
Semi-major
6,734.6 km
B*
1.2014e-3
RAAN
25.7961°
Arg perigee
273.0202°
Mean anomaly
87.0422°
Rev number
7,929

§ Raw data

STARLINK-11521 [DTC]1 62597U 25008L   26145.03760693  .00156823  00000+0  12014-2 0  99902 62597  42.9991  25.7961 0002130 273.0202  87.0422 15.70864863 79295

JSON: /api/v1/satellites/62597 · /tle

For live sub-satellite position, see the globe view (requires WebGL).

§ Visibility from observer

Set your observer location to see the next 7 days of passes ≥ 10°. The values pass through the URL so the page stays shareable.

No JS? Fill the form by hand. The geolocation button needs JavaScript.